Flag for U.S.A. Weather past 2 weeks in Flint, Michigan, U.S.A.

Now
70 °F

Passing clouds.


Feels Like: 74 °F
Forecast: 62 / 78 °F
Wind: 13 mph from Southwest

Location: Bishop International Airport

Current Time: May 27, 2015 at 9:09:41 AM

Latest Report: May 27, 2015 at 7:53 AM


Visibility: 10 mi

Pressure: 29.90 "Hg

Humidity: 71%

Dew point: 60 °F

Location of FlintLocation

Historic Weather in Flint — Graph

°F

Flint temperature yesterday

Maximum temperature yesterday: 85 °F (at 3:53 PM)
Minimum temperature yesterday: 67 °F (at 5:53 AM)
Average temperature yesterday: 74 °F

Past Weeks' High & Low Weather Summary

 TemperatureHumidityPressure
High85 °F (May 26, 3:53 PM)93% (May 16, 12:01 AM)30.49 "Hg (May 16, 12:01 AM)
Low36 °F (May 23, 5:53 AM)21% (May 22, 6:53 PM)29.82 "Hg (May 26, 5:53 PM)
Average62 °F61%30.11 "Hg
* Reported May 12 7:53 AM — May 27 7:53 AM, Flint, Weather by CustomWeather, © 2015

Note: Actual official high and low records may vary slightly from our data, if they occured in-between our weather recording intervals... More about our weather records

Advertising

Flint weather history for previous 24 hours

 ConditionsComfort  
Time TempWeatherWind HumidityBarometerVisibility
7:53 AM
Wed, May 27
70 °FPassing clouds.13 mph71%29.90 "Hg10 mi
6:53 AM67 °FPassing clouds.10 mph79%29.89 "Hg10 mi
5:53 AM67 °FClear.9 mph76%29.88 "Hg10 mi
4:53 AM68 °FClear.8 mph73%29.87 "Hg10 mi
3:53 AM69 °FClear.9 mph73%29.87 "Hg10 mi
2:53 AM69 °FClear.14 mph76%29.87 "Hg10 mi
1:53 AM71 °FPassing clouds.12 mph76%29.86 "Hg10 mi
12:53 AM71 °FPartly cloudy.9 mph81%29.86 "Hg10 mi
11:53 PM
Tue, May 26
72 °FPartly cloudy.10 mph81%29.85 "Hg10 mi
10:53 PM72 °FPartly cloudy.10 mph76%29.86 "Hg10 mi
9:53 PM73 °FOvercast.12 mph64%29.85 "Hg10 mi
8:53 PM73 °FBroken clouds.14 mph81%29.85 "Hg10 mi
7:53 PM74 °FMostly cloudy.9 mph82%29.84 "Hg10 mi
6:53 PM74 °FLight rain. Mostly cloudy.13 mph82%29.85 "Hg3 mi
5:53 PM81 °FPartly sunny.17 mph56%29.82 "Hg10 mi
4:53 PM84 °FPassing clouds.15 mph53%29.84 "Hg10 mi
3:53 PM85 °FSunny.16 mph48%29.88 "Hg10 mi
2:53 PM82 °FScattered clouds.15 mph55%29.93 "Hg10 mi
2:01 PM80 °FScattered clouds.10 mph58%29.97 "Hg10 mi
12:53 PM78 °FPassing clouds.10 mph64%30.00 "Hg10 mi
11:53 AM76 °FBroken clouds.13 mph67%30.01 "Hg10 mi
10:53 AM73 °FOvercast.13 mph74%30.03 "Hg10 mi
9:53 AM71 °FPartly sunny.9 mph78%30.03 "Hg9 mi
Weather by CustomWeather, © 2015

See weather overviewHow to use our weather pages